Regional Weather Roundup
Issued by NWS

Home | Current Version | Previous Version | Graphics & Text | Print | Product List | Glossary Off
Versions: 1 2 3 4 5 6 7 8 9 10 11 12 13 14 15 16 17 18 19 20 21 22 23 24 25 26 27 28 29 30 31 32 33 34 35 36 37 38 39 40 41 42 43 44 45 46 47 48 49 50

000
ASUS43 KLMK 031410
RWRKY
KENTUCKY REGIONAL WEATHER ROUNDUP
NATIONAL WEATHER SERVICE LOUISVILLE KY
1000 AM EDT SUN MAY 03 2015

NOTE "FAIR" INDICATES FEW OR NO CLOUDS BELOW 12,000 FEET
WITH NO SIGNIFICANT WEATHER AND/OR OBSTRUCTIONS TO VISIBILITY.

KYZ001>023-026-027-061>063-070>075-031500-
WESTERN AND SOUTH CENTRAL KENTUCKY

CITY           SKY/WX    TMP DP  RH WIND       PRES   REMARKS
PADUCAH        SUNNY     68  49  50 S3        30.09R
HENDERSON      PTSUNNY   64  52  63 S5        30.10R
OWENSBORO      PTSUNNY   62  53  72 S6        30.12R
HOPKINSVILLE   PTSUNNY   65  52  63 S3        30.12S
BOWLING GREEN  MOSUNNY   62  52  69 E3        30.14S
GLASGOW        MOSUNNY   64  51  63 CALM      30.15S
$$

KYZ024-025-028>034-038-045-046-053-031500-
NORTH CENTRAL KENTUCKY

CITY           SKY/WX    TMP DP  RH WIND       PRES   REMARKS
LOUISVILLE/SDF PTSUNNY   66  51  58 SE6       30.13S
LOUISVILLE/LOU PTSUNNY   65  51  60 VRB3      30.14S
FORT KNOX      PTSUNNY   62  50  66 E3        30.12S
$$

KYZ035>037-039>044-047>052-055>060-089>105-031500-
NORTHEAST KENTUCKY

CITY           SKY/WX    TMP DP  RH WIND       PRES   REMARKS
LEXINGTON      MOSUNNY   67  49  52 S8        30.16R
COVINGTON      PTSUNNY   66  51  58 S5        30.14R
FRANKFORT      MOSUNNY   65  49  56 SE3       30.14R
$$

KYZ054-064>069-076>088-106>120-031500-
SOUTHEAST KENTUCKY

CITY           SKY/WX    TMP DP  RH WIND       PRES   REMARKS
JACKSON        PTSUNNY   61  43  51 CALM      30.18R
LONDON         SUNNY     62  43  49 SE5       30.17S
SOMERSET       MOSUNNY   59  46  63 CALM      30.18S
MIDDLESBORO    SUNNY     55  47  72 CALM      30.21S
MONTICELLO     SUNNY     64  51  62 CALM      30.19S
$$




USA.gov is the U.S. government's official web portal to all federal, state and local government web resources and services.